Showing default

AUTCUBE 2, 43681

Orbit data source: Space-Track

AUTCUBE 2, 43681 is a payload satellite in SSO that was launched on Mon, 29 Oct 2018 UTC via an H-IIA 202 launch vehicle from the Tanegashima Space Center (TNSTA). Payload-class satellites include a variety of spacecraft equipped with specific instruments for various scientific and technological missions. These include communications satellites like Starlink; space stations such as the ISS; scientific satellites like the Hubble; Earth observation satellites from companies like Planet Labs, Umbra, and HawkEye 360; GPS; miniature CubeSats for education and research; and military/defense satellites.

Loading next visibility...
Identifier
43681, 2018-084K
Orbit
SSO
Country
Flag of TBDTBD
Related business
Manufacturer
AUT
Mission
Operational Amateur Technology
Bus & Motor
CUBESAT 1U, Unknown motor
Mass
1.6 kg wet, 1.6 kg dry
Launch date (UTC)
2018-10-29 (7 years ago)
Launch vehicle
H-IIA 202
Launch site
Tanegashima Space Center (TNSTA)
Object type
Payload
Rocket body
Debris
Shape & HBR
Box, 0.1 m
Radar Cross Section
0.015 m², Small (<0.1 m²)

Expand to show TLE details & history
Last TLE update: 12 hours ago

TLE from 12 hours ago
0 AUTCUBE 2
1 43681U 18084K   26034.53369118  .00004975  00000-0  31914-3 0  9990
2 43681  98.0794 233.6218 0010099 129.6416 230.5703 15.08954076396760
Epoch: 2026-02-03T12:48Z
TLE epoch observation values (Epoch: 2026-02-03T12:48:30.917Z)
Latitude
-0.00014°
Longitude
-92.22025°
Altitude
546.892 km
Speed
7.586 km/s
True Right ascension
15h 34m 29s
True Declination
0° 00' 00"
Sunlit
Object was in daylight at epoch
Visualization orbit readout
Latitude
Unknown
Longitude
Unknown
Altitude
Unknown
Speed
Unknown
Apparent Right ascension
Unknown
Apparent Declination
Unknown
Sunlit
N/A
Visualization observer readout
Local Sidereal Time
02:41:01
Azimuth
Unknown
Elevation
Unknown
Doppler factor
Unknown
Orbital elements
Apogee altitude
543.388 km
Perigee altitude
529.422 km
Semi-major axis
6,914.542 km
Eccentricity
0.00101
Inclination
98.0794°
RAAN
233.6218°
Arg. of periapsis
129.6416°
True anomaly
230.48098°
Mean anomaly
230.5703°
Eccentric anomaly
230.52564°
Mean motion
3.77484 °/min
Orbital period
95.37 mins
BSTAR
0.00031914
Loading maneuver chart data...
Computing Atmospheric mass density...

Documentation

Showing up to 5 results
|